Location: Henham
(51.9333°N, 0.2500°E)
Time: 16:58:34
(UTC+00:00)

Cosmos 2297 Rocket - Pass Details

Date: 23 October 2019
Orbit: 841 x 842 km, 71.0° (Epoch: 16 November)

Event Time Altitude Azimuth Distance (km) Brightness Sun altitude
Rises 17:24:39 0° 303° (WNW) 3,404 6.1 -6.2°
Reaches altitude 10° 17:29:23 10° 338° (NNW) 2,471 4.8 -6.9°
Maximum altitude 17:30:54 11° 354° (N) 2,398 4.5 -7.1°
Drops below altitude 10° 17:32:26 10° 10° (N) 2,471 4.4 -7.4°
Enters shadow 17:36:31 - 42° (NE) 3,234 4.8 -8.0°
